Regional Weather Roundup
Issued by NWS

Home | Current Version | Previous Version | Graphics & Text | Print | Product List | Glossary On
Versions: 1 2 3 4 5 6 7 8 9 10 11 12 13 14 15 16 17 18 19 20 21 22 23 24 25 26 27 28 29 30 31 32 33 34 35 36 37 38 39 40 41 42 43 44 45 46 47 48 49 50
000
ASUS43 KIND 230459
RWRIN

WEATHER ROUNDUP FOR INDIANA
NATIONAL WEATHER SERVICE INDIANAPOLIS IN
100 AM EDT THU MAR 23 2017

NOTE: "FAIR" INDICATES FEW OR NO CLOUDS BELOW 12,000 FEET WITH NO
SIGNIFICANT WEATHER AND/OR OBSTRUCTIONS TO VISIBILITY.

* - STATION DOES NOT REPORT WEATHER SUCH AS PRECIPITATION OR FOG.

+ - STATION NOT QUALITY CONTROLLED BY THE NATIONAL WEATHER SERVICE.
    USE DATA WITH CAUTION...ESPECIALLY DEWPOINT AND RELATIVE
    HUMIDITY OBSERVATIONS.

INZ001>003-010>013-019-020-230600-
NORTHWEST INDIANA

CITY           SKY/WX    TMP DP  RH WIND       PRES   REMARKS
KNOX *+        PTCLDY    28   1  31 SE5       30.47F WCI  23
MONTICELLO +   CLEAR     30  20  65 E6        30.46F WCI  24

$$

LMZ046-743>745-230600-
SOUTHERN LAKE MICHIGAN

STATION/POSITION TIME  TEMP    WIND        PRES    WAVE
                       AIR SEA DIR/SP/G            HT
                 (UTC) (F)     (DEG/KT/KT) (MB)    (FT)
BURNS HARBOR     0440   29      80/  8/  9 1032.5R
MICHIGAN CITY    0430   28      80/  7/  8   N/A

$$

INZ004-005-014>016-021>024-230600-
NORTH CENTRAL INDIANA

CITY           SKY/WX    TMP DP  RH WIND       PRES   REMARKS
GOSHEN         CLEAR     29  15  56 SE8       30.48F WCI  21
PERU/GRISSOM   CLEAR     29  22  74 E10       30.45F WCI  20
SOUTH BEND     CLEAR     29  15  56 SE7       30.48F WCI  22

$$

INZ006>009-017-018-025>027-230600-
NORTHEAST INDIANA

CITY           SKY/WX    TMP DP  RH WIND       PRES   REMARKS
ANGOLA *+      CLEAR     27  16  63 SE5       30.50S WCI  21
FORT WAYNE     PTCLDY    27  18  69 E8        30.49F WCI  19
KENDALLVILLE + CLEAR     26  17  67 SE8       30.49F WCI  18

$$

INZ028-029-035-036-043>045-051>053-230600-
WEST CENTRAL INDIANA

CITY           SKY/WX    TMP DP  RH WIND       PRES   REMARKS
CRAWFORDSVL +  CLEAR     28  22  75 E8        30.44F WCI  20
GREENCASTLE +  CLOUDY    32  21  64 E7        30.44F WCI  26
LAFAYETTE      CLEAR     28  20  71 E8        30.45F WCI  20
TERRE HAUTE    CLOUDY    32  21  64 E8        30.44S WCI  25

$$

INZ030>032-037>040-046>048-054>057-064-065-230600-
CENTRAL INDIANA

CITY           SKY/WX    TMP DP  RH WIND       PRES   REMARKS
GREENWOOD *+   PTCLDY    31  22  67 E7        30.45F WCI  25
INDIANAPOLIS   CLOUDY    32  20  61 E12       30.45F WCI  23
-EAGLE CREEK   CLEAR     31  20  63 E9        30.45F WCI  23
KOKOMO +       CLEAR     29  23  78 E9        30.47F WCI  20
SHELBYVILLE    CLOUDY    29  21  72 E8        30.45F WCI  21

$$

INZ033-034-041-042-049-050-058-059-230600-
EAST CENTRAL INDIANA

CITY           SKY/WX    TMP DP  RH WIND       PRES   REMARKS
MUNCIE         CLEAR     30  21  69 E10       30.47F WCI  21
RICHMOND +     CLOUDY    28  21  74 E12       30.47F WCI  18

$$

INZ060-061-067>069-081>083-085>088-230600-
SOUTHWEST INDIANA

CITY           SKY/WX    TMP DP  RH WIND       PRES   REMARKS
EVANSVILLE     CLEAR     39  21  48 E8        30.41S
HUNTINGBURG *+ CLOUDY    37  19  48 E7        30.42S

$$

INZ062-063-066-070>080-084-089>092-230600-
SOUTH CENTRAL AND SOUTHEAST INDIANA

CITY           SKY/WX    TMP DP  RH WIND       PRES   REMARKS
BLOOMINGTON    CLOUDY    34  19  54 E10       30.42F WCI  26
MADISON *+     CLEAR     32  19  59 E6        30.46F WCI  26
SEYMOUR +      CLEAR     30  21  69 E5        30.45F WCI  25

$$




USA.gov is the U.S. government's official web portal to all federal, state and local government web resources and services.